Weather History for KIAG - August, 2013

Change the Weather History Date:

Wednesday, August 21, 2013

  Actual Average Record
Temperature  
Mean Temperature 73 °F -  
Max Temperature 84 °F 77 °F 86 °F (1998)
Min Temperature 64 °F 58 °F 50 °F (1992)
Cooling Degree Days 8    
Growing Degree Days 23 (Base 50)    
Moisture  
Dew Point 63 °F    
Average Humidity 72    
Maximum Humidity 90    
Minimum Humidity 50    
Precipitation  
Precipitation 0.00 in - - ()
Sea Level Pressure  
Sea Level Pressure 30.10 in    
Wind  
Wind Speed 8 mph (SSW)    
Max Wind Speed 16 mph    
Max Gust Speed 21 mph    
Visibility 9 miles    
Events      
Averages and records for this station are not official NWS values.
T = Trace of Precipitation, MM = Missing Value Source: NWS Daily Summary

Daily Weather History Graph

Daily Weather History Graph

Search for Another Location

Airport or City:

Trip Planner

Search our weather history database for the weather conditions in past years. The results will help you decide how hot, cold, wet, or windy it might be!

Date:

Astronomy

Aug. 21, 2013 Rise Set
Actual Time 6:28 AM EDT 8:08 PM EDT
Civil Twilight 5:58 AM EDT 8:38 PM EDT
Nautical Twilight 5:21 AM EDT 9:15 PM EDT
Astronomical Twilight 4:42 AM EDT 9:54 PM EDT
Moon 8:12 PM EDT (8/21) 7:08 AM EDT (8/21)
Length of Visible Light 14h 40m
Length of Day
13h 40m
Full, 100% of the Moon is Illuminated
Aug 21
Full
Aug 28
Last Quarter
Sep 5
New
Sep 12
First Quarter
Sep 19
Full

Hourly Weather History & Observations

Time (EDT) Temp. Heat Index Dew Point Humidity Pressure Visibility Wind Dir Wind Speed Gust Speed Precip Events Conditions
12:53 AM 66.9 °F - 64.0 °F 90% 30.12 in 8.0 mi SSW 6.9 mph - N/A   Clear
1:53 AM 66.9 °F - 64.0 °F 90% 30.12 in 8.0 mi SSW 6.9 mph - N/A   Clear
2:53 AM 66.9 °F - 62.1 °F 84% 30.12 in 8.0 mi SSW 8.1 mph - N/A   Clear
3:53 AM 64.9 °F - 61.0 °F 87% 30.12 in 8.0 mi SSW 5.8 mph - N/A   Clear
4:53 AM 64.9 °F - 61.0 °F 87% 30.13 in 8.0 mi SSW 4.6 mph - N/A   Clear
5:53 AM 64.9 °F - 61.0 °F 87% 30.13 in 9.0 mi SSW 4.6 mph - N/A   Clear
6:53 AM 64.9 °F - 60.1 °F 84% 30.14 in 8.0 mi South 4.6 mph - N/A   Clear
7:02 AM 64.4 °F - 60.8 °F 88% 30.14 in 7.0 mi SSW 4.6 mph - N/A   Partly Cloudy
7:53 AM 66.9 °F - 61.0 °F 81% 30.14 in 7.0 mi SSW 6.9 mph - N/A   Scattered Clouds
8:53 AM 72.0 °F - 63.0 °F 73% 30.15 in 10.0 mi SSW 8.1 mph - N/A   Scattered Clouds
9:53 AM 73.9 °F - 63.0 °F 68% 30.15 in 10.0 mi SW 10.4 mph - N/A   Scattered Clouds
10:53 AM 77.0 °F - 64.0 °F 64% 30.15 in 10.0 mi SW 10.4 mph - N/A   Scattered Clouds
11:53 AM 80.1 °F 81.9 °F 64.9 °F 60% 30.14 in 10.0 mi SW 9.2 mph - N/A   Scattered Clouds
12:53 PM 82.0 °F 84.1 °F 66.0 °F 58% 30.13 in 10.0 mi SW 11.5 mph - N/A   Mostly Cloudy
1:53 PM 82.9 °F 84.6 °F 64.9 °F 54% 30.12 in 10.0 mi SW 11.5 mph - N/A   Mostly Cloudy
2:53 PM 82.9 °F 84.0 °F 63.0 °F 51% 30.09 in 10.0 mi SSW 16.1 mph - N/A   Scattered Clouds
3:53 PM 82.9 °F 84.4 °F 64.0 °F 53% 30.08 in 10.0 mi SW 16.1 mph 20.7 mph N/A   Scattered Clouds
4:53 PM 81.0 °F 81.9 °F 62.1 °F 52% 30.06 in 10.0 mi SW 8.1 mph - N/A   Scattered Clouds
5:53 PM 81.0 °F 81.7 °F 61.0 °F 50% 30.04 in 10.0 mi SW 15.0 mph - N/A   Scattered Clouds
6:53 PM 79.0 °F - 62.1 °F 56% 30.03 in 10.0 mi SSW 10.4 mph - N/A   Scattered Clouds
7:53 PM 75.9 °F - 63.0 °F 64% 30.02 in 10.0 mi SSW 8.1 mph - N/A   Scattered Clouds
8:53 PM 73.0 °F - 63.0 °F 71% 30.02 in 10.0 mi SSW 6.9 mph - N/A   Scattered Clouds
9:53 PM 70.0 °F - 64.0 °F 81% 30.02 in 10.0 mi SSW 8.1 mph - N/A   Partly Cloudy
10:53 PM 70.0 °F - 64.9 °F 84% 30.03 in 10.0 mi SSW 6.9 mph - N/A   Clear
11:53 PM 69.1 °F - 64.9 °F 87% 30.01 in 6.0 mi SW 3.5 mph - N/A   Clear